{"data":{"norad_id":55291,"intl_designator":"2023-010Y","name":"STARLINK-5327","alt_names":[],"object_type":"PAYLOAD","status":"ACTIVE","operator":null,"country":"US","launch_date":"2023-01-19","launch_site_code":"AFWTR","launch_vehicle":null,"mission":null,"orbit_class":"UNKNOWN","rcs_meters":null,"size_class":null,"mass_kg":null,"dimensions":null,"purposes":["comms"],"wikipedia_slug":null,"has_3d_model":false,"image_url":null,"decayed_at":null,"tle_current":{"epoch":"2026-05-24T20:21:49.227552Z","epoch_age_seconds":87894,"freshness":"FRESH","line1":"1 55291U 23010Y   26144.84848643  .00000484  00000+0  48387-4 0  9999","line2":"2 55291  69.9994 192.5650 0003489 270.1199  89.9560 14.98335507184679","mean_motion":14.98335507,"eccentricity":0.0003489,"inclination_deg":69.9994,"raan_deg":192.565,"arg_perigee_deg":270.1199,"mean_anomaly_deg":89.956,"bstar":4.8387e-5,"rev_number":18467,"period_min":96.106645892895,"perigee_km":569.61394469543,"apogee_km":574.46377741127,"semimajor_km":6950.1758610533,"source":"CELESTRAK","updated_at":"2026-05-25T13:38:17.735241Z"}}}